Time,TemperatureF,DewpointF,PressureIn,WindDirection,WindDirectionDegrees,WindSpeedMPH,WindSpeedGustMPH,Humidity,HourlyPrecipIn,Conditions,Clouds,dailyrainin,SoftwareType,DateUTC
2013-06-15 00:05:00,80.3,73.9,29.88,South,182,0.0,0.0,81,0.00,,,0.00,Wunderground v.1.15,2013-06-15 05:05:00,
2013-06-15 00:15:00,80.2,73.8,29.87,South,182,0.0,0.0,81,0.00,,,0.00,Wunderground v.1.15,2013-06-15 05:15:00,
2013-06-15 00:25:00,80.1,73.7,29.88,South,182,0.0,0.0,81,0.00,,,0.00,Wunderground v.1.15,2013-06-15 05:25:00,
2013-06-15 00:30:00,80.1,73.7,29.88,South,182,0.0,0.0,81,0.00,,,0.00,Wunderground v.1.15,2013-06-15 05:30:00,
2013-06-15 00:40:00,79.9,73.9,29.88,South,182,0.0,0.0,82,0.00,,,0.00,Wunderground v.1.15,2013-06-15 05:40:00,
2013-06-15 00:50:00,79.8,73.8,29.88,South,182,0.0,0.0,82,0.00,,,0.00,Wunderground v.1.15,2013-06-15 05:50:00,
2013-06-15 01:00:00,79.6,73.6,29.88,South,182,0.0,0.0,82,0.00,,,0.00,Wunderground v.1.15,2013-06-15 06:00:00,
2013-06-15 01:05:00,79.6,73.6,29.88,South,182,0.0,0.0,82,0.00,,,0.00,Wunderground v.1.15,2013-06-15 06:05:00,
2013-06-15 01:15:00,79.5,73.5,29.88,South,182,0.0,0.0,82,0.00,,,0.00,Wunderground v.1.15,2013-06-15 06:15:00,
2013-06-15 01:20:00,79.5,73.5,29.88,South,182,0.0,0.0,82,0.00,,,0.00,Wunderground v.1.15,2013-06-15 06:20:00,
2013-06-15 01:30:00,79.7,73.3,29.88,SSE,155,0.0,0.0,81,0.00,,,0.00,Wunderground v.1.15,2013-06-15 06:30:00,
2013-06-15 01:35:00,79.9,73.5,29.88,SSE,156,0.0,0.0,81,0.00,,,0.00,Wunderground v.1.15,2013-06-15 06:35:00,
2013-06-15 01:45:00,80.1,73.7,29.88,SSE,156,0.0,0.0,81,0.00,,,0.00,Wunderground v.1.15,2013-06-15 06:45:00,
2013-06-15 01:50:00,80.1,73.4,29.89,SSE,156,0.0,0.0,80,0.00,,,0.00,Wunderground v.1.15,2013-06-15 06:50:00,
2013-06-15 02:00:00,80.0,73.3,29.89,SSE,156,0.0,0.0,80,0.00,,,0.00,Wunderground v.1.15,2013-06-15 07:00:00,
2013-06-15 02:05:00,80.0,73.6,29.89,SSE,156,0.0,0.0,81,0.00,,,0.00,Wunderground v.1.15,2013-06-15 07:05:00,
2013-06-15 02:15:00,79.8,73.4,29.88,SSE,156,0.0,0.0,81,0.00,,,0.00,Wunderground v.1.15,2013-06-15 07:15:00,
2013-06-15 02:25:00,79.8,73.4,29.88,SSE,156,0.0,0.0,81,0.00,,,0.00,Wunderground v.1.15,2013-06-15 07:25:00,
2013-06-15 02:35:00,79.7,73.3,29.88,SSE,156,0.0,0.0,81,0.00,,,0.00,Wunderground v.1.15,2013-06-15 07:35:00,
2013-06-15 02:40:00,79.6,73.3,29.88,SSE,156,0.0,0.0,81,0.00,,,0.00,Wunderground v.1.15,2013-06-15 07:40:00,
2013-06-15 02:50:00,79.5,73.5,29.88,SSE,156,0.0,0.0,82,0.00,,,0.00,Wunderground v.1.15,2013-06-15 07:50:00,
2013-06-15 03:00:00,79.3,73.3,29.87,SSE,156,0.0,0.0,82,0.00,,,0.00,Wunderground v.1.15,2013-06-15 08:00:00,
2013-06-15 03:05:00,79.3,73.7,29.87,SSE,156,0.0,0.0,83,0.00,,,0.00,Wunderground v.1.15,2013-06-15 08:05:00,
2013-06-15 03:15:00,79.0,73.4,29.87,SSE,156,0.0,0.0,83,0.00,,,0.00,Wunderground v.1.15,2013-06-15 08:15:00,
2013-06-15 03:25:00,78.9,73.7,29.87,SSE,156,0.0,0.0,84,0.00,,,0.00,Wunderground v.1.15,2013-06-15 08:25:00,
2013-06-15 03:30:00,78.8,73.6,29.87,SSE,156,0.0,0.0,84,0.00,,,0.00,Wunderground v.1.15,2013-06-15 08:30:00,
2013-06-15 03:40:00,78.7,73.8,29.87,SSE,156,0.0,0.0,85,0.00,,,0.00,Wunderground v.1.15,2013-06-15 08:40:00,
2013-06-15 03:50:00,78.6,73.7,29.87,SSE,156,0.0,0.0,85,0.00,,,0.00,Wunderground v.1.15,2013-06-15 08:50:00,
2013-06-15 04:00:00,78.4,73.5,29.87,SSE,156,0.0,0.0,85,0.00,,,0.00,Wunderground v.1.15,2013-06-15 09:00:00,
2013-06-15 04:05:00,78.4,73.9,29.88,SSE,156,0.0,0.0,86,0.00,,,0.00,Wunderground v.1.15,2013-06-15 09:05:00,
2013-06-15 04:15:00,78.3,73.8,29.88,SSE,156,0.0,0.0,86,0.00,,,0.00,Wunderground v.1.15,2013-06-15 09:15:00,
2013-06-15 04:20:00,78.4,73.9,29.88,SSE,156,0.0,0.0,86,0.00,,,0.00,Wunderground v.1.15,2013-06-15 09:20:00,
2013-06-15 04:30:00,78.3,73.8,29.88,SSE,156,0.0,0.0,86,0.00,,,0.00,Wunderground v.1.15,2013-06-15 09:30:00,
2013-06-15 04:40:00,78.2,73.7,29.87,SSE,156,0.0,0.0,86,0.00,,,0.00,Wunderground v.1.15,2013-06-15 09:40:00,
2013-06-15 04:50:00,78.2,73.7,29.87,SSE,156,0.0,0.0,86,0.00,,,0.00,Wunderground v.1.15,2013-06-15 09:50:00,
2013-06-15 05:00:00,78.1,73.6,29.87,SSE,156,0.0,0.0,86,0.00,,,0.00,Wunderground v.1.15,2013-06-15 10:00:00,
2013-06-15 05:05:00,78.1,73.6,29.87,SSE,156,0.0,0.0,86,0.00,,,0.00,Wunderground v.1.15,2013-06-15 10:05:00,
2013-06-15 05:15:00,78.0,73.5,29.87,SSE,156,0.0,0.0,86,0.00,,,0.00,Wunderground v.1.15,2013-06-15 10:15:00,
2013-06-15 05:25:00,77.9,73.7,29.88,SSE,156,0.0,0.0,87,0.00,,,0.00,Wunderground v.1.15,2013-06-15 10:25:00,
2013-06-15 05:30:00,77.8,73.6,29.88,SSE,156,0.0,0.0,87,0.00,,,0.00,Wunderground v.1.15,2013-06-15 10:30:00,
2013-06-15 05:40:00,77.7,73.5,29.88,SSE,156,0.0,0.0,87,0.00,,,0.00,Wunderground v.1.15,2013-06-15 10:40:00,
2013-06-15 05:50:00,77.7,73.5,29.89,SSE,156,0.0,0.0,87,0.00,,,0.00,Wunderground v.1.15,2013-06-15 10:50:00,
2013-06-15 05:55:00,77.7,73.5,29.89,SSE,156,0.0,0.0,87,0.00,,,0.00,Wunderground v.1.15,2013-06-15 10:55:00,
2013-06-15 06:00:00,77.7,73.5,29.89,SSE,156,0.0,0.0,87,0.00,,,0.00,Wunderground v.1.15,2013-06-15 11:00:00,
2013-06-15 06:05:00,77.7,73.5,29.89,SSE,156,0.0,0.0,87,0.00,,,0.00,Wunderground v.1.15,2013-06-15 11:05:00,
2013-06-15 06:15:00,77.6,73.4,29.89,SSE,156,0.0,0.0,87,0.00,,,0.00,Wunderground v.1.15,2013-06-15 11:15:00,
2013-06-15 06:20:00,77.6,73.8,29.89,SSE,156,0.0,0.0,88,0.00,,,0.00,Wunderground v.1.15,2013-06-15 11:20:00,
2013-06-15 06:30:00,77.6,73.8,29.90,SSE,156,0.0,0.0,88,0.00,,,0.00,Wunderground v.1.15,2013-06-15 11:30:00,
2013-06-15 06:40:00,77.5,73.7,29.90,SSE,156,0.0,0.0,88,0.00,,,0.00,Wunderground v.1.15,2013-06-15 11:40:00,
2013-06-15 06:50:00,77.5,73.7,29.90,SSE,156,0.0,0.0,88,0.00,,,0.00,Wunderground v.1.15,2013-06-15 11:50:00,
2013-06-15 06:55:00,77.4,73.9,29.90,SSE,156,0.0,0.0,89,0.00,,,0.00,Wunderground v.1.15,2013-06-15 11:55:00,
2013-06-15 07:03:00,77.4,73.9,29.91,North,-999,0.0,0.0,89,0.00,,,-99.99,WeatherLink 5.7,2013-06-15 12:03:00,
2013-06-15 07:10:00,77.3,73.5,29.91,SSE,156,0.0,0.0,88,0.00,,,0.00,Wunderground v.1.15,2013-06-15 12:10:00,
2013-06-15 07:20:00,77.3,73.5,29.91,SSE,156,0.0,0.0,88,0.00,,,0.00,Wunderground v.1.15,2013-06-15 12:20:00,
2013-06-15 07:30:00,77.3,73.5,29.91,SSE,156,0.0,0.0,88,0.00,,,0.00,Wunderground v.1.15,2013-06-15 12:30:00,
2013-06-15 07:35:00,77.3,73.5,29.91,SSE,156,0.0,0.0,88,0.00,,,0.00,Wunderground v.1.15,2013-06-15 12:35:00,
2013-06-15 07:45:00,77.4,73.9,29.91,SSE,156,0.0,0.0,89,0.00,,,0.00,Wunderground v.1.15,2013-06-15 12:45:00,
2013-06-15 07:55:00,77.5,73.7,29.92,SSE,156,0.0,0.0,88,0.00,,,0.00,Wunderground v.1.15,2013-06-15 12:55:00,
2013-06-15 08:00:00,77.6,73.8,29.92,SSE,156,0.0,0.0,88,0.00,,,0.00,Wunderground v.1.15,2013-06-15 13:00:00,
2013-06-15 08:05:00,77.7,73.9,29.92,SSE,156,0.0,0.0,88,0.00,,,0.00,Wunderground v.1.15,2013-06-15 13:05:00,
2013-06-15 08:15:00,77.8,74.0,29.92,SSE,155,0.0,0.0,88,0.00,,,0.00,Wunderground v.1.15,2013-06-15 13:15:00,
2013-06-15 08:25:00,78.0,73.8,29.92,SSE,156,0.0,0.0,87,0.00,,,0.00,Wunderground v.1.15,2013-06-15 13:25:00,
2013-06-15 08:33:00,78.0,73.8,29.92,North,-999,0.0,0.0,87,0.00,,,-99.99,WeatherLink 5.7,2013-06-15 13:33:00,
2013-06-15 08:40:00,78.4,74.2,29.92,SSE,156,0.0,0.0,87,0.00,,,0.00,Wunderground v.1.15,2013-06-15 13:40:00,
2013-06-15 08:50:00,78.7,74.5,29.93,SSE,156,0.0,0.0,87,0.00,,,0.00,Wunderground v.1.15,2013-06-15 13:50:00,
2013-06-15 09:00:00,78.9,74.4,29.93,SSE,156,0.0,0.0,86,0.00,,,0.00,Wunderground v.1.15,2013-06-15 14:00:00,
2013-06-15 09:05:00,78.9,74.4,29.93,SSE,156,0.0,0.0,86,0.00,,,0.00,Wunderground v.1.15,2013-06-15 14:05:00,
2013-06-15 09:10:00,78.9,74.4,29.93,SSE,156,0.0,0.0,86,0.00,,,0.00,Wunderground v.1.15,2013-06-15 14:10:00,
2013-06-15 09:20:00,79.1,74.5,29.94,SSE,159,0.0,0.0,86,0.00,,,0.00,Wunderground v.1.15,2013-06-15 14:20:00,
2013-06-15 09:25:00,79.2,74.6,29.94,SSE,159,0.0,0.0,86,0.00,,,0.00,Wunderground v.1.15,2013-06-15 14:25:00,
2013-06-15 09:35:00,79.6,74.7,29.94,SSE,159,0.0,0.0,85,0.00,,,0.00,Wunderground v.1.15,2013-06-15 14:35:00,
2013-06-15 09:40:00,79.8,74.5,29.94,SSE,159,0.0,0.0,84,0.00,,,0.00,Wunderground v.1.15,2013-06-15 14:40:00,
2013-06-15 09:50:00,80.2,74.2,29.94,SSE,159,0.0,0.0,82,0.00,,,0.00,Wunderground v.1.15,2013-06-15 14:50:00,
2013-06-15 10:00:00,80.5,74.1,29.94,SSE,154,0.0,0.0,81,0.00,,,0.00,Wunderground v.1.15,2013-06-15 15:00:00,
2013-06-15 10:05:00,80.6,74.2,29.94,SSE,154,0.0,0.0,81,0.00,,,0.00,Wunderground v.1.15,2013-06-15 15:05:00,
2013-06-15 10:15:00,81.0,73.9,29.94,SSE,153,0.0,0.0,79,0.00,,,0.00,Wunderground v.1.15,2013-06-15 15:15:00,
2013-06-15 10:25:00,81.3,73.8,29.94,SE,137,0.0,0.0,78,0.00,,,0.00,Wunderground v.1.15,2013-06-15 15:25:00,
2013-06-15 10:30:00,81.4,73.9,29.94,SE,138,0.0,0.0,78,0.00,,,0.00,Wunderground v.1.15,2013-06-15 15:30:00,
2013-06-15 10:40:00,81.8,73.9,29.94,SE,132,0.0,0.0,77,0.00,,,0.00,Wunderground v.1.15,2013-06-15 15:40:00,
2013-06-15 10:50:00,82.3,74.0,29.94,South,179,0.0,0.0,76,0.00,,,0.00,Wunderground v.1.15,2013-06-15 15:50:00,
2013-06-15 11:00:00,82.5,73.8,29.93,SSE,156,0.0,0.0,75,0.00,,,0.00,Wunderground v.1.15,2013-06-15 16:00:00,
2013-06-15 11:05:00,82.7,73.6,29.93,SE,130,0.0,0.0,74,0.00,,,0.00,Wunderground v.1.15,2013-06-15 16:05:00,
2013-06-15 11:15:00,82.8,73.7,29.94,SE,145,0.0,0.0,74,0.00,,,0.00,Wunderground v.1.15,2013-06-15 16:15:00,
2013-06-15 11:20:00,82.9,73.8,29.94,SE,145,0.0,0.0,74,0.00,,,0.00,Wunderground v.1.15,2013-06-15 16:20:00,
2013-06-15 11:30:00,83.1,72.7,29.94,SE,144,0.0,0.0,71,0.00,,,0.00,Wunderground v.1.15,2013-06-15 16:30:00,
2013-06-15 11:40:00,83.1,73.1,29.94,SSE,154,0.0,0.0,72,0.00,,,0.00,Wunderground v.1.15,2013-06-15 16:40:00,
2013-06-15 11:45:00,83.3,72.9,29.94,SE,141,0.0,0.0,71,0.00,,,0.00,Wunderground v.1.15,2013-06-15 16:45:00,
2013-06-15 11:55:00,83.6,72.8,29.94,SE,142,0.0,0.0,70,0.00,,,0.00,Wunderground v.1.15,2013-06-15 16:55:00,
2013-06-15 12:00:00,83.9,73.1,29.94,SW,214,0.0,0.0,70,0.00,,,0.00,Wunderground v.1.15,2013-06-15 17:00:00,
2013-06-15 12:05:00,84.1,72.8,29.94,SW,216,0.0,0.0,69,0.00,,,0.00,Wunderground v.1.15,2013-06-15 17:05:00,
2013-06-15 12:15:00,84.3,73.0,29.93,SSW,205,0.0,0.0,69,0.00,,,0.00,Wunderground v.1.15,2013-06-15 17:15:00,
2013-06-15 12:25:00,84.8,73.1,29.93,SSE,150,0.0,0.0,68,0.00,,,0.00,Wunderground v.1.15,2013-06-15 17:25:00,
2013-06-15 12:35:00,85.2,72.6,29.93,SE,134,0.0,0.0,66,0.00,,,0.00,Wunderground v.1.15,2013-06-15 17:35:00,
2013-06-15 12:40:00,85.0,72.8,29.93,SSW,197,0.0,0.0,67,0.00,,,0.00,Wunderground v.1.15,2013-06-15 17:40:00,
2013-06-15 12:50:00,84.8,72.6,29.92,SSE,158,0.0,0.0,67,0.00,,,0.00,Wunderground v.1.15,2013-06-15 17:50:00,
2013-06-15 13:00:00,84.8,73.5,29.92,SSW,206,0.0,0.0,69,0.00,,,0.00,Wunderground v.1.15,2013-06-15 18:00:00,
2013-06-15 13:05:00,84.8,72.6,29.92,South,183,0.0,0.0,67,0.00,,,0.00,Wunderground v.1.15,2013-06-15 18:05:00,
2013-06-15 13:15:00,84.8,72.6,29.92,ESE,119,0.0,0.0,67,0.00,,,0.00,Wunderground v.1.15,2013-06-15 18:15:00,
2013-06-15 13:25:00,84.6,72.9,29.92,South,187,0.0,0.0,68,0.00,,,0.00,Wunderground v.1.15,2013-06-15 18:25:00,
2013-06-15 13:30:00,84.8,73.1,29.92,SSE,164,0.0,0.0,68,0.00,,,0.00,Wunderground v.1.15,2013-06-15 18:30:00,
2013-06-15 13:40:00,84.6,72.9,29.92,SE,142,0.0,0.0,68,0.00,,,0.00,Wunderground v.1.15,2013-06-15 18:40:00,
2013-06-15 13:50:00,84.8,72.6,29.92,South,180,0.0,0.0,67,0.00,,,0.00,Wunderground v.1.15,2013-06-15 18:50:00,
2013-06-15 14:00:00,84.9,72.7,29.92,SE,140,0.0,0.0,67,0.00,,,0.00,Wunderground v.1.15,2013-06-15 19:00:00,
2013-06-15 14:05:00,84.9,73.2,29.91,SE,144,0.0,0.0,68,0.00,,,0.00,Wunderground v.1.15,2013-06-15 19:05:00,
2013-06-15 14:15:00,84.7,73.4,29.91,South,173,0.0,0.0,69,0.00,,,0.00,Wunderground v.1.15,2013-06-15 19:15:00,
2013-06-15 14:25:00,84.8,73.5,29.91,SSE,165,0.0,0.0,69,0.00,,,0.00,Wunderground v.1.15,2013-06-15 19:25:00,
2013-06-15 14:35:00,85.0,73.3,29.91,SW,232,0.0,0.0,68,0.00,,,0.00,Wunderground v.1.15,2013-06-15 19:35:00,
2013-06-15 14:45:00,84.8,73.1,29.91,SSW,196,0.0,0.0,68,0.00,,,0.00,Wunderground v.1.15,2013-06-15 19:45:00,
2013-06-15 14:50:00,84.8,73.1,29.91,SSW,198,0.0,0.0,68,0.00,,,0.00,Wunderground v.1.15,2013-06-15 19:50:00,
2013-06-15 15:00:00,85.2,73.0,29.91,SSW,197,0.0,0.0,67,0.00,,,0.00,Wunderground v.1.15,2013-06-15 20:00:00,
2013-06-15 15:05:00,85.2,73.0,29.91,South,173,0.0,0.0,67,0.00,,,0.00,Wunderground v.1.15,2013-06-15 20:05:00,
2013-06-15 15:15:00,85.2,72.6,29.91,South,173,0.0,0.0,66,0.00,,,0.00,Wunderground v.1.15,2013-06-15 20:15:00,
2013-06-15 15:20:00,85.3,72.6,29.90,South,184,0.0,0.0,66,0.00,,,0.00,Wunderground v.1.15,2013-06-15 20:20:00,
2013-06-15 15:30:00,85.4,72.7,29.90,SE,146,0.0,0.0,66,0.00,,,0.00,Wunderground v.1.15,2013-06-15 20:30:00,
2013-06-15 15:35:00,85.5,72.8,29.90,South,183,0.0,0.0,66,0.00,,,0.00,Wunderground v.1.15,2013-06-15 20:35:00,
2013-06-15 15:45:00,86.0,72.9,29.90,SW,227,0.0,0.0,65,0.00,,,0.00,Wunderground v.1.15,2013-06-15 20:45:00,
2013-06-15 15:55:00,86.1,73.0,29.90,SE,136,0.0,0.0,65,0.00,,,0.00,Wunderground v.1.15,2013-06-15 20:55:00,
2013-06-15 16:03:00,86.1,72.5,29.89,North,-999,0.0,0.0,64,0.00,,,-99.99,WeatherLink 5.7,2013-06-15 21:03:00,
2013-06-15 16:10:00,86.4,72.8,29.89,SE,132,0.0,0.0,64,0.00,,,0.00,Wunderground v.1.15,2013-06-15 21:10:00,
2013-06-15 16:15:00,86.9,73.3,29.89,ESE,123,0.0,0.0,64,0.00,,,0.00,Wunderground v.1.15,2013-06-15 21:15:00,
2013-06-15 16:25:00,87.1,72.5,29.89,SE,136,0.0,0.0,62,0.00,,,0.00,Wunderground v.1.15,2013-06-15 21:25:00,
2013-06-15 16:35:00,87.0,71.9,29.88,SSE,150,0.0,0.0,61,0.00,,,0.00,Wunderground v.1.15,2013-06-15 21:35:00,
2013-06-15 16:40:00,87.0,72.4,29.88,SSE,150,0.0,0.0,62,0.00,,,0.00,Wunderground v.1.15,2013-06-15 21:40:00,
2013-06-15 16:50:00,87.2,71.6,29.88,SE,132,0.0,0.0,60,0.00,,,0.00,Wunderground v.1.15,2013-06-15 21:50:00,
2013-06-15 17:00:00,87.2,72.1,29.87,SE,132,0.0,0.0,61,0.00,,,0.00,Wunderground v.1.15,2013-06-15 22:00:00,
2013-06-15 17:05:00,87.2,72.1,29.87,SE,132,0.0,0.0,61,0.00,,,0.00,Wunderground v.1.15,2013-06-15 22:05:00,
2013-06-15 17:15:00,87.5,72.4,29.87,SE,132,0.0,0.0,61,0.00,,,0.00,Wunderground v.1.15,2013-06-15 22:15:00,
2013-06-15 17:20:00,87.5,71.9,29.87,SE,131,0.0,0.0,60,0.00,,,0.00,Wunderground v.1.15,2013-06-15 22:20:00,
2013-06-15 17:30:00,88.2,71.0,29.86,SSE,151,0.0,0.0,57,0.00,,,0.00,Wunderground v.1.15,2013-06-15 22:30:00,
2013-06-15 17:40:00,89.3,72.1,29.86,SE,144,0.0,0.0,57,0.00,,,0.00,Wunderground v.1.15,2013-06-15 22:40:00,
2013-06-15 17:50:00,89.4,71.6,29.85,SE,144,0.0,0.0,56,0.00,,,0.00,Wunderground v.1.15,2013-06-15 22:50:00,
2013-06-15 17:55:00,89.4,71.6,29.85,SE,124,0.0,0.0,56,0.00,,,0.00,Wunderground v.1.15,2013-06-15 22:55:00,
2013-06-15 18:03:00,89.3,71.5,29.85,North,-999,0.0,0.0,56,0.00,,,-99.99,WeatherLink 5.7,2013-06-15 23:03:00,
2013-06-15 18:10:00,89.3,71.5,29.85,South,186,0.0,0.0,56,0.00,,,0.00,Wunderground v.1.15,2013-06-15 23:10:00,
2013-06-15 18:20:00,89.5,70.7,29.85,SE,139,0.0,0.0,54,0.00,,,0.00,Wunderground v.1.15,2013-06-15 23:20:00,
2013-06-15 18:30:00,89.6,71.3,29.84,WSW,248,0.0,0.0,55,0.00,,,0.00,Wunderground v.1.15,2013-06-15 23:30:00,
2013-06-15 18:40:00,89.5,70.7,29.84,South,180,0.0,0.0,54,0.00,,,0.00,Wunderground v.1.15,2013-06-15 23:40:00,
2013-06-15 18:45:00,89.7,70.8,29.84,South,182,0.0,0.0,54,0.00,,,0.00,Wunderground v.1.15,2013-06-15 23:45:00,
2013-06-15 18:55:00,89.3,69.9,29.84,SE,124,0.0,0.0,53,0.00,,,0.00,Wunderground v.1.15,2013-06-15 23:55:00,
2013-06-15 19:00:00,89.1,70.3,29.84,SE,138,0.0,0.0,54,0.00,,,0.00,Wunderground v.1.15,2013-06-16 00:00:00,
2013-06-15 19:05:00,88.9,70.1,29.84,ESE,121,0.0,0.0,54,0.00,,,0.00,Wunderground v.1.15,2013-06-16 00:05:00,
2013-06-15 19:15:00,88.7,69.9,29.84,SE,145,0.0,0.0,54,0.00,,,0.00,Wunderground v.1.15,2013-06-16 00:15:00,
2013-06-15 19:25:00,88.4,70.2,29.84,SE,132,0.0,0.0,55,0.00,,,0.00,Wunderground v.1.15,2013-06-16 00:25:00,
2013-06-15 19:33:00,88.3,70.1,29.84,North,-999,0.0,0.0,55,0.00,,,-99.99,WeatherLink 5.7,2013-06-16 00:33:00,
2013-06-15 19:40:00,88.0,69.8,29.84,SSE,150,0.0,0.0,55,0.00,,,0.00,Wunderground v.1.15,2013-06-16 00:40:00,
2013-06-15 19:50:00,87.8,69.6,29.84,SE,141,0.0,0.0,55,0.00,,,0.00,Wunderground v.1.15,2013-06-16 00:50:00,
2013-06-15 19:55:00,87.7,69.0,29.84,SE,142,0.0,0.0,54,0.00,,,0.00,Wunderground v.1.15,2013-06-16 00:55:00,
2013-06-15 20:03:00,87.6,68.9,29.84,North,-999,0.0,0.0,54,0.00,,,-99.99,WeatherLink 5.7,2013-06-16 01:03:00,
2013-06-15 20:10:00,87.1,69.0,29.84,SSE,147,0.0,0.0,55,0.00,,,0.00,Wunderground v.1.15,2013-06-16 01:10:00,
2013-06-15 20:15:00,86.9,69.3,29.84,SSE,147,0.0,0.0,56,0.00,,,0.00,Wunderground v.1.15,2013-06-16 01:15:00,
2013-06-15 20:25:00,86.5,69.5,29.84,SSE,147,0.0,0.0,57,0.00,,,0.00,Wunderground v.1.15,2013-06-16 01:25:00,
2013-06-15 20:30:00,86.2,69.7,29.84,SSE,147,0.0,0.0,58,0.00,,,0.00,Wunderground v.1.15,2013-06-16 01:30:00,
2013-06-15 20:40:00,85.7,69.7,29.84,SSE,147,0.0,0.0,59,0.00,,,0.00,Wunderground v.1.15,2013-06-16 01:40:00,
2013-06-15 20:50:00,85.2,70.2,29.84,SSE,147,0.0,0.0,61,0.00,,,0.00,Wunderground v.1.15,2013-06-16 01:50:00,
2013-06-15 21:00:00,84.7,70.2,29.85,SSE,147,0.0,0.0,62,0.00,,,0.00,Wunderground v.1.15,2013-06-16 02:00:00,
2013-06-15 21:05:00,84.4,70.4,29.85,SSE,147,0.0,0.0,63,0.00,,,0.00,Wunderground v.1.15,2013-06-16 02:05:00,
2013-06-15 21:15:00,84.0,70.5,29.85,SSE,147,0.0,0.0,64,0.00,,,0.00,Wunderground v.1.15,2013-06-16 02:15:00,
2013-06-15 21:20:00,83.8,70.8,29.86,SSE,147,0.0,0.0,65,0.00,,,0.00,Wunderground v.1.15,2013-06-16 02:20:00,
2013-06-15 21:30:00,83.4,70.4,29.86,SSE,147,0.0,0.0,65,0.00,,,0.00,Wunderground v.1.15,2013-06-16 02:30:00,
2013-06-15 21:40:00,83.0,70.9,29.86,SSE,147,0.0,0.0,67,0.00,,,0.00,Wunderground v.1.15,2013-06-16 02:40:00,
2013-06-15 21:45:00,82.8,71.2,29.86,SSE,147,0.0,0.0,68,0.00,,,0.00,Wunderground v.1.15,2013-06-16 02:45:00,
2013-06-15 21:55:00,82.3,71.1,29.86,SSE,147,0.0,0.0,69,0.00,,,0.00,Wunderground v.1.15,2013-06-16 02:55:00,
2013-06-15 22:05:00,81.7,71.0,29.87,SSE,147,0.0,0.0,70,0.00,,,0.00,Wunderground v.1.15,2013-06-16 03:05:00,
2013-06-15 22:15:00,81.3,71.0,29.87,SSE,147,0.0,0.0,71,0.00,,,0.00,Wunderground v.1.15,2013-06-16 03:15:00,
2013-06-15 22:25:00,81.0,71.1,29.87,SSE,147,0.0,0.0,72,0.00,,,0.00,Wunderground v.1.15,2013-06-16 03:25:00,
2013-06-15 22:35:00,80.8,71.3,29.87,SSE,147,0.0,0.0,73,0.00,,,0.00,Wunderground v.1.15,2013-06-16 03:35:00,
2013-06-15 22:45:00,80.6,71.1,29.88,SSE,147,0.0,0.0,73,0.00,,,0.00,Wunderground v.1.15,2013-06-16 03:45:00,
2013-06-15 22:50:00,80.6,71.1,29.88,SSE,147,0.0,0.0,73,0.00,,,0.00,Wunderground v.1.15,2013-06-16 03:50:00,
2013-06-15 23:00:00,80.5,71.0,29.88,SSE,147,0.0,0.0,73,0.00,,,0.00,Wunderground v.1.15,2013-06-16 04:00:00,
2013-06-15 23:03:00,80.5,71.0,29.88,North,-999,0.0,0.0,73,0.00,,,-99.99,WeatherLink 5.7,2013-06-16 04:03:00,
2013-06-15 23:10:00,80.3,71.3,29.89,SSE,147,0.0,0.0,74,0.00,,,0.00,Wunderground v.1.15,2013-06-16 04:10:00,
2013-06-15 23:15:00,80.2,71.2,29.89,SSE,147,0.0,0.0,74,0.00,,,0.00,Wunderground v.1.15,2013-06-16 04:15:00,
2013-06-15 23:20:00,80.0,71.0,29.89,SSE,147,0.0,0.0,74,0.00,,,0.00,Wunderground v.1.15,2013-06-16 04:20:00,
2013-06-15 23:25:00,80.0,71.4,29.89,SSE,147,0.0,0.0,75,0.00,,,0.00,Wunderground v.1.15,2013-06-16 04:25:00,
2013-06-15 23:30:00,79.9,71.3,29.89,SSE,147,0.0,0.0,75,0.00,,,0.00,Wunderground v.1.15,2013-06-16 04:30:00,
2013-06-15 23:40:00,79.6,71.0,29.89,SSE,147,0.0,0.0,75,0.00,,,0.00,Wunderground v.1.15,2013-06-16 04:40:00,
2013-06-15 23:50:00,79.3,71.1,29.89,SSE,147,0.0,0.0,76,0.00,,,0.00,Wunderground v.1.15,2013-06-16 04:50:00,